Du Bois, PA

4:42 AM EDT on June 27, 2017 (GMT -0400)
Du Bois-Jefferson County

Weather History for KDUJ - March, 2014

Change the Weather History Date:

Friday, March 14, 2014

  Actual Average Record
Temperature  
Mean Temperature 38 °F 34 °F  
Max Temperature 56 °F 43 °F 77 °F (1990)
Min Temperature 20 °F 25 °F 3 °F (1993)
Degree Days  
Heating Degree Days 27 31  
Month to date heating degree days 466 464  
Since 1 July heating degree days 5549 5487  
Cooling Degree Days 0 0  
Month to date cooling degree days 0 0  
Year to date cooling degree days 0 0  
Moisture  
Dew Point 19 °F    
Average Humidity 45    
Maximum Humidity 57    
Minimum Humidity 32    
Precipitation  
Precipitation T in 0.11 in 1.53 in (1997)
Month to date precipitation 0.92 1.41  
Sea Level Pressure  
Sea Level Pressure 29.90 in    
Wind  
Wind Speed 14 mph (SW)    
Max Wind Speed 32 mph    
Max Gust Speed 46 mph    
Visibility 10 miles    
Events      
T = Trace of Precipitation, MM = Missing Value Source: NWS Daily Summary

Daily Weather History Graph

Daily Weather History Graph

Search for Another Location

Airport or City:

Trip Planner

Search our weather history database for the weather conditions in past years. The results will help you decide how hot, cold, wet, or windy it might be!

Date:

Astronomy

Mar. 14, 2014 Rise Set
Actual Time 7:28 AM EDT 7:21 PM EDT
Civil Twilight 7:01 AM EDT 7:48 PM EDT
Nautical Twilight 6:29 AM EDT 8:20 PM EDT
Astronomical Twilight 5:57 AM EDT 8:53 PM EDT
Moon 5:41 PM EDT (3/14) 6:08 AM EDT (3/14)
Length of Visible Light 12h 47m
Length of Day
11h 52m
Waxing Gibbous, 96% of the Moon is Illuminated
Mar 14
Waxing Gibbous
Mar 16
Full
Mar 23
Last Quarter
Mar 30
New
Apr 7
First Quarter

Hourly Weather History & Observations

Time (EDT) Temp. Windchill Dew Point Humidity Pressure Visibility Wind Dir Wind Speed Gust Speed Precip Events Conditions
12:56 AM 19.9 °F 10.1 °F 6.1 °F 55% 30.01 in 10.0 mi SW 8.1 mph - N/A   Overcast
1:56 AM 21.9 °F 12.5 °F 8.1 °F 55% 30.09 in 10.0 mi SW 8.1 mph - N/A   Overcast
2:56 AM 23.0 °F 11.7 °F 9.0 °F 55% 30.08 in 10.0 mi SW 11.5 mph - N/A   Overcast
3:56 AM 24.1 °F 14.4 °F 10.0 °F 55% 30.06 in 10.0 mi SW 9.2 mph - N/A   Overcast
4:56 AM 25.0 °F 15.5 °F 10.9 °F 55% 30.06 in 10.0 mi SW 9.2 mph - N/A   Overcast
5:56 AM 26.1 °F 16.8 °F 10.9 °F 53% 30.05 in 10.0 mi SW 9.2 mph - N/A   Overcast
6:56 AM 27.0 °F 18.0 °F 12.0 °F 53% 30.04 in 10.0 mi SW 9.2 mph - N/A   Overcast
7:56 AM 28.0 °F 19.3 °F 12.0 °F 51% 30.04 in 10.0 mi SSW 9.2 mph - N/A   Overcast
8:56 AM 30.0 °F 21.7 °F 12.9 °F 49% 30.04 in 10.0 mi SW 9.2 mph - N/A   Overcast
9:56 AM 33.1 °F 24.4 °F 14.0 °F 46% 30.02 in 10.0 mi SW 11.5 mph - N/A   Clear
10:56 AM 37.9 °F 30.5 °F 18.0 °F 45% 29.99 in 10.0 mi SSW 11.5 mph - N/A   Clear
11:56 AM 42.1 °F 34.2 °F 21.0 °F 43% 29.96 in 10.0 mi SSW 16.1 mph 27.6 mph N/A   Clear
12:56 PM 46.9 °F - 24.1 °F 41% 29.92 in 10.0 mi SW 20.7 mph 27.6 mph N/A   Clear
1:56 PM 48.9 °F - 24.1 °F 38% 29.88 in 10.0 mi SW 17.3 mph 25.3 mph N/A   Clear
2:56 PM 52.0 °F - 25.0 °F 35% 29.84 in - SW 17.3 mph 32.2 mph N/A   Clear
3:56 PM - - - N/A% 29.77 in 10.0 mi SW 21.9 mph 28.8 mph N/A   Clear
4:56 PM 55.0 °F - 27.0 °F 34% 29.76 in 10.0 mi SSW 11.5 mph 23.0 mph N/A   Clear
5:56 PM 55.0 °F - 26.1 °F 33% 29.74 in 10.0 mi SW 16.1 mph 25.3 mph N/A   Clear
6:56 PM 54.0 °F - 26.1 °F 34% 29.74 in 10.0 mi SSW 12.7 mph 25.3 mph N/A   Partly Cloudy
7:56 PM 52.0 °F - 26.1 °F 37% 29.74 in 10.0 mi SSW 11.5 mph 20.7 mph N/A   Clear
8:56 PM 52.0 °F - 26.1 °F 37% 29.74 in 10.0 mi SSW 10.4 mph 19.6 mph N/A   Mostly Cloudy
9:56 PM 52.0 °F - 26.1 °F 37% 29.72 in 10.0 mi SSW 16.1 mph 27.6 mph N/A   Overcast
10:56 PM 52.0 °F - 26.1 °F 37% 29.70 in 10.0 mi SW 18.4 mph 26.5 mph N/A   Overcast
11:56 PM 52.0 °F - 28.0 °F 40% 29.69 in 10.0 mi SW 25.3 mph 36.8 mph N/A   Overcast